Location: Unspecified
(0.0000°N, 0.0000°E)
Time: 18:38:11
(UTC+00:00)

Vanguard 3 - Pass Details

Date: 10 February 2023
Orbit: 509 x 3249 km, 33.3° (Epoch: 20 March)

Event Time Altitude Azimuth Distance (km) Brightness Sun altitude
Rises 05:42:28 0° 246° (WSW) 6,882 11.4 -7.7°
Reaches altitude 10° 05:53:52 10° 214° (SSW) 5,113 11.0 -4.9°
Maximum altitude 05:56:34 11° 203° (SSW) 4,822 11.0 -4.3°
Drops below altitude 10° 05:59:05 10° 192° (SSW) 4,640 11.1 -3.7°
Sets 06:06:54 0° 156° (SSE) 4,794 11.7 -1.8°
